Location: Akdamlar
(36.8729°N, 30.5187°E)
Time: 14:49:28
(UTC+00:00)

Cosmos 923 Rocket - Pass Details

Date: 18 September 2020
Orbit: 759 x 784 km, 74.0° (Epoch: 19 October)

Event Time Altitude Azimuth Distance (km) Brightness Sun altitude
Rises 16:19:33 0° 343° (NNW) 3,236 7.6 -4.6°
Reaches altitude 10° 16:21:56 10° 346° (NNW) 2,303 6.8 -5.1°
Maximum altitude 16:27:10 75° 72° (ENE) 789 4.0 -6.1°
Drops below altitude 10° 16:32:20 10° 157° (SSE) 2,280 6.2 -7.2°
Sets 16:34:41 0° 159° (SSE) 3,201 6.9 -7.6°
